Погода Сырдарья

Погода Сырдарья : погода сейчас, прогноз погоды и архив. Всё, что Вы хотите узнать о погоде Сырдарья!

Поиск расширенной информации на нашем сайте:

Другие новости

Новости СМИ2

Главная страница сайта

Новости сайта

02.10.2013

Напоминаем, что на нашем новом сайте вы можете получить высокодетализированные прогнозы погоды по пунктам России, СНГ и мира (включающие важные для авиации метеовеличины, такие как направление и скорость ветра, видимость, явления погоды, количество и форма облачности, нижняя и верхняя граница облачности), а также ознакомиться с разнообразными материалами по авиационной метеорологии и подборкой полезных ссылок на эту тему.

Сайт Метеоцентр.Азия посвящён разработке технологий оптимизации авиаметеорологического обслуживания, включая проектирование и перспективное создание нескольких автоматизированных авиаметеорологических систем:
- система выпуска высокодетальных прогностических карт явлений погоды для нижнего воздушного пространства по России и ближнему зарубежью;
- система верификации прогнозов TAF (выпускаемых синоптиками официальных АМСГ РФ и ближнего зарубежья) и AUTOTAF (выпускаемых сайтом Метеоцентр.Азия) - выявление ошибок, онлайн-сопоставление с фактической погодой METAR, автоматическое внесение коррективов в прогнозы при резком отклонении фактической погоды от прогноза, подсчёт оправдываемости прогнозов по элементам и в целом;
- система обработки, анализа и отображения авиаметеорологической информации для применения провайдерами метеорологической информации.


Погода Сырдарья - сегодня

Время (UTC), дата Ветер
(°,м/с) 
Видим.   Явления Облачность Т
(°С)
Тd
(°С)
f(%) Тe
(°С)
Pmin
(гПа)
dP
(гПа)
Po
(мм)
O2
(г/м3)
Тmin Tmax R s Состояние
почвы
09 25.05.17 320 (СЗ) 10 км    5/3 600 м средняя, верхняя 
[Cu med, cong|Ac lent|Ci fib]
+35 +13.1 27 +41  1007.5  -0.6  734  260           
12 25.05.17 320 (СЗ) 10 км    6/3 600 м средняя, верхняя 
[Cu med, cong|Ac lent|Ci fib]
+34.6 +14.9 31 +44  1007.3  -0.2  734  259           
15 25.05.17 020 (С) 10 км    10/5 600 м кучево-дожд., средняя, верхняя 
[Cb cap|Ac lent|Ci fib]
+27.6 +13.6 42 +34  1009.1  734  266    +36.8       
18 25.05.17 320 (СЗ) 10 км    6/0 верхняя 
[Ci fib]
+23.7 +15.4 60 +34  1010.2  0.8  735  269    +36.8       
21 25.05.17 320 (СЗ) 10 км    3/0 верхняя 
[Ci fib]
+22.3 +13.6 58 +29  1011.3  0.8  736  271           
00 26.05.17 070 (В) 10 км    3/3 600 м 
[Cu med, cong]
+18.5 +14.7 79 +29  1011.9  0.2  736  275           
03 26.05.17 180 (Ю) 10 км    3/0 верхняя 
[Ci fib]
+25.2 +15.9 56 +36  1012.7  1.5  737  269           
06 26.05.17 180 (Ю) 10 км    ясно 
+31.6 +15.1 37 +41  1012.2  0.2  737  263  +17.8         
09 26.05.17 050 (СВ) 10 км    ясно 
+33.8 +11.4 26 +37  1011.5  -0.6  737  262           
12 26.05.17 020 (С) 10 км    ясно 
+33.9 +10.5 24 +36  1010.7  -0.8  736  262           
18 26.05.17 050 (СВ) 10 км    3/0 верхняя 
[Ci fib]
+24.5 +17.7 66 +39  1011.5  0.2  736  268    +35.1       
21 26.05.17 140 (ЮВ) 10 км    ясно 
+20.6 +15.8 74 +31  1010.8  -1.1  735  272           
06 27.05.17 140 (ЮВ) 10 км    ясно 
+33.8 +11.4 26 +37  1009  -0.7  735  261  +18.4         
09 27.05.17 160 (Ю) 10 км    3/3 600 м 
[Cu med, cong]
+35.7 +11.5 23 +39  1008.1  -0.7  734  260           
12 27.05.17 360 (С) 10 км    3/3 600 м 
[Cu med, cong]
+36.5 +13.6 25 +43  1006.8  -1.2  734  258           
15 27.05.17 тихо ()   10 км    ясно 
+30.8 +20.4 54 +51  1006.8  -0.4  733  261    +37.9       
18 27.05.17 340 (С) 10 км    ясно 
+25.7 +13.9 48 +33  1007  -0.3  733  267    +37.9       
21 27.05.17 340 (С) 10 км    ясно 
+23.5 +12.9 51 +29  1008.2  0.8  734  270           
06 28.05.17 090 (В) 10 км    ясно 
+29.3 +16.4 46 +41  1009.2  0.1  735  264  +21         
09 28.05.17 320 (СЗ) 10 км    3/0 верхняя 
[Ci fib]
+34 +16.4 35 +46  1008.4  -0.4  735  260           
12 28.05.17 050 (СВ) 10 км    3/0 верхняя 
[Ci fib]
+34.5 +10.5 23 +37  1007.6  -0.8  734  261           
15 28.05.17 110 (В) 10 км    ясно 
+29.7 +18.6 51 +46  1008  734  262    +35.1       
18 28.05.17 090 (В) 10 км    ясно 
+24.9 +15.3 55 +35  1008.5  -0.6  719  262    +35.1       
21 28.05.17 090 (В) 10 км    ясно 
+19.9 +14 69 +29  1007.5  -0.8  733  272           
00 29.05.17 110 (В) 10 км    ясно 
+20.1 +14.2 69 +28  1006.8  -0.7  732  272           
Время (UTC), дата Ветер
(°,м/с) 
Видим.   Явления Облачность Т
(°С)
Тd
(°С)
f(%) Тe
(°С)
Pmin
(гПа)
dP
(гПа)
Po
(мм)
O2
(г/м3)
Тmin Tmax R s Состояние
почвы

Для получения пояснительной информации подведите курсор к названию столбца.

ПОГОДА Сырдарья - архив

Всё, что Вы хотите узнать о погоде Сырдарья - удобно и подробно!

Выберите нужную дату (начиная с 1 января 2015* года) и нажмите кнопку "Найти".
Будут отображены архивные сводки погоды по пункту Сырдарья, начиная с указанной даты.


Отображать данные в формате CSV (для использования в таблицах Excel)


Внимание! Наш архив погоды предназначен исключительно для личного некоммерческого использования в познавательных целях. Если Вам необходимы официальные справки о состоянии погоды (для производственных, юридических, коммерческих и т.п. целей), обращайтесь в органы Росгидромета.

*Примечание: данная дата относится к архиву по метеостанциям СССР (Россия, СНГ, Балтия).
Архив по метеостанциям Зарубежной Европы и Азии (кроме Китая) хранится 10 дней, по другим регионам земного шара (Китай, Африка, Америка, Австралия, Океания) - 1 день.

Сырдарья - район местоположения метеостанции


Название, широта, долгота, высота метеостанции:
Сырдарья 40.8°ш. 68.7°д. 264 м над ур. моря [Узбекистан]

Дополнительная информация

В oтличие oт бoльшинства пoгoдных сайтoв мы публикуем пoдрoбную метеoинфoрмацию в детальнoм прoфессиoнальнoм фoрмате.

Характеристики температуры и влажнoсти вoздуха измеряются на высoте 2 м в тени вдали oт зданий и деревьев.
Скoрoсть ветра измеряется на высoте 10 м (на урoвне рoста челoвека скoрoсть ветра ниже в 1.5-2 раза). Если метеoстанция нахoдится в гoрoде или в лесу, тo скoрoсть ветра занижена на 2-4 м/с пo сравнению с oткрытым местoм. Скoрoсть ветра над акватoриями крупных рек и oзёр, а также на вершинах хoлмoв на 2-5 м/с выше, чем в oбычных услoвиях.
Атмoсфернoе давление в разных тoчках местнoсти мoжет значительнo oтличаться oт давления на метеoстанции, в зависимoсти oт услoвий рельефа (при пoдъёме на 10 м давление пoнижается примернo на 1 мм рт.ст.).